N5KR Weather Reports


Display with metric or nautical units.
time (UTC)temp
F
wind
direction
speed
MPH
gust
MPH
rain 1hr
in
rain 24hr
in
rain mn
in
humidity
%
barometer
mb
20260904180505 94 166 6.0 13.0 0.00 0.00 0.00 50 1015.0
20260904180005 94 143 9.0 16.0 0.00 0.00 0.00 49 1015.1
20260904175005 93 193 5.0 10.0 0.00 0.00 0.00 52 1015.3
20260904174504 94 184 4.0 9.0 0.00 0.00 0.00 52 1015.2
20260904174005 93 218 5.0 13.0 0.00 0.00 0.00 53 1015.4
20260904173505 93 197 5.0 8.0 0.00 0.00 0.00 54 1015.4
20260904173005 93 140 5.0 10.0 0.00 0.00 0.00 55 1015.6
20260904172505 93 137 10.0 15.0 0.00 0.00 0.00 55 1015.6
20260904172005 92 155 6.0 13.0 0.00 0.00 0.00 54 1015.6
20260904171505 93 163 5.0 12.0 0.00 0.00 0.00 52 1015.6
20260904171004 92 182 3.0 8.0 0.00 0.00 0.00 56 1015.7
20260904170504 93 167 6.0 12.0 0.00 0.00 0.00 55 1015.7
20260904170004 93 224 3.0 7.0 0.00 0.00 0.00 55 1015.8
20260904165005 92 183 6.0 12.0 0.00 0.00 0.00 57 1015.9
20260904164505 92 160 7.0 13.0 0.00 0.00 0.00 56 1015.8
20260904164005 92 160 7.0 13.0 0.00 0.00 0.00 56 1015.8
20260904163505 91 161 5.0 13.0 0.00 0.00 0.00 57 1015.9
20260904163005 91 200 3.0 9.0 0.00 0.00 0.00 59 1015.9
20260904162504 90 251 6.0 13.0 0.00 0.00 0.00 59 1015.9
20260904162004 90 181 5.0 13.0 0.00 0.00 0.00 61 1015.8
20260904161505 90 203 6.0 13.0 0.00 0.00 0.00 61 1015.8
20260904161004 90 190 4.0 9.0 0.00 0.00 0.00 61 1015.9
20260904160004 88 195 5.0 13.0 0.00 0.00 0.00 64 1015.7
20260904155504 89 199 5.0 10.0 0.00 0.00 0.00 64 1015.7
20260904155005 89 209 4.0 12.0 0.00 0.00 0.00 65 1015.7
20260904154504 88 194 9.0 12.0 0.00 0.00 0.00 66 1015.6
20260904154004 88 249 2.0 6.0 0.00 0.00 0.00 67 1015.6
20260904153504 88 169 6.0 13.0 0.00 0.00 0.00 66 1015.6
20260904153004 88 192 4.0 12.0 0.00 0.00 0.00 68 1015.7
20260904152505 87 179 7.0 13.0 0.00 0.00 0.00 69 1015.7
20260904151504 86 207 6.0 14.0 0.00 0.00 0.00 72 1015.6
20260904151004 86 195 6.0 12.0 0.00 0.00 0.00 72 1015.6
20260904150504 86 170 7.0 13.0 0.00 0.00 0.00 73 1015.6
20260904150004 86 191 5.0 12.0 0.00 0.00 0.00 74 1015.6
20260904145504 85 185 5.0 9.0 0.00 0.00 0.00 74 1015.5
20260904144505 84 194 6.0 10.0 0.00 0.00 0.00 77 1015.6
20260904144004 84 180 4.0 12.0 0.00 0.00 0.00 78 1015.4
20260904143504 82 201 7.0 13.0 0.00 0.00 0.00 80 1015.5
20260904143004 82 159 6.0 13.0 0.00 0.00 0.00 81 1015.5
20260904142504 83 167 6.0 13.0 0.00 0.00 0.00 80 1015.4
20260904142005 83 167 7.0 13.0 0.00 0.00 0.00 79 1015.4
20260904141504 83 195 5.0 12.0 0.00 0.00 0.00 81 1015.4
20260904141004 82 181 5.0 13.0 0.00 0.00 0.00 82 1015.4
20260904140504 82 159 9.0 14.0 0.00 0.00 0.00 82 1015.5
20260904140004 81 162 5.0 13.0 0.00 0.00 0.00 83 1015.4
20260904135504 81 151 6.0 12.0 0.00 0.00 0.00 84 1015.4
20260904135004 80 156 4.0 12.0 0.00 0.00 0.00 85 1015.2
20260904134504 80 173 5.0 8.0 0.00 0.00 0.00 86 1015.2
20260904134004 79 151 4.0 8.0 0.00 0.00 0.00 86 1015.1
20260904133505 79 166 5.0 9.0 0.00 0.00 0.00 86 1014.9
20260904133005 79 167 2.0 8.0 0.00 0.00 0.00 87 1014.9
20260904132504 78 167 7.0 12.0 0.00 0.00 0.00 88 1014.9
20260904132004 78 164 7.0 12.0 0.00 0.00 0.00 88 1014.9
20260904131504 78 168 2.0 9.0 0.00 0.00 0.00 89 1014.9
20260904131004 77 169 5.0 10.0 0.00 0.00 0.00 89 1014.8
20260904125505 77 166 5.0 13.0 0.00 0.00 0.00 89 1014.7
20260904125005 76 159 5.0 13.0 0.00 0.00 0.00 89 1014.6
20260904124004 76 150 3.0 7.0 0.00 0.00 0.00 89 1014.7
20260904123504 76 138 3.0 9.0 0.00 0.00 0.00 89 1014.5
20260904123004 76 122 2.0 6.0 0.00 0.00 0.00 89 1014.5
20260904122503 76 171 2.0 9.0 0.00 0.00 0.00 89 1014.5
20260904122004 76 137 2.0 9.0 0.00 0.00 0.00 88 1014.5
20260904121504 76 160 5.0 9.0 0.00 0.00 0.00 88 1014.4
20260904115503 76 145 2.0 5.0 0.00 0.00 0.00 87 1014.3
20260904115004 76 141 1.0 5.0 0.00 0.00 0.00 87 1014.4
20260904114504 76 141 3.0 7.0 0.00 0.00 0.00 87 1014.4
20260904113503 76 174 3.0 7.0 0.00 0.00 0.00 86 1014.2
20260904113004 76 150 1.0 6.0 0.00 0.00 0.00 87 1014.2
20260904112504 76 158 2.0 8.0 0.00 0.00 0.00 86 1014.2
20260904112004 76 138 3.0 7.0 0.00 0.00 0.00 86 1014.1
20260904111503 76 154 1.0 5.0 0.00 0.00 0.00 86 1014.1
20260904111004 77 150 2.0 6.0 0.00 0.00 0.00 86 1014.2
20260904110504 77 128 1.0 3.0 0.00 0.00 0.00 86 1014.2
20260904110004 77 138 0.0 6.0 0.00 0.00 0.00 86 1014.2
20260904105504 77 178 1.0 3.0 0.00 0.00 0.00 86 1014.1
20260904105005 77 142 1.0 5.0 0.00 0.00 0.00 86 1014.0
20260904104504 77 160 2.0 6.0 0.00 0.00 0.00 86 1014.0
20260904104004 77 157 1.0 6.0 0.00 0.00 0.00 86 1013.8
20260904103504 77 163 3.0 7.0 0.00 0.00 0.00 85 1013.8
20260904103004 77 157 3.0 8.0 0.00 0.00 0.00 85 1013.9
20260904102504 77 156 3.0 6.0 0.00 0.00 0.00 85 1013.9
20260904102004 77 159 3.0 7.0 0.00 0.00 0.00 85 1013.9
20260904101504 77 158 2.0 6.0 0.00 0.00 0.00 85 1013.8
20260904101003 77 167 6.0 10.0 0.00 0.00 0.00 85 1013.8
20260904100504 78 163 3.0 7.0 0.00 0.00 0.00 84 1013.8
20260904100004 78 160 5.0 10.0 0.00 0.00 0.00 84 1013.8
20260904095504 78 162 2.0 8.0 0.00 0.00 0.00 84 1013.8
20260904095004 78 173 5.0 8.0 0.00 0.00 0.00 84 1013.8
20260904094004 78 183 4.0 8.0 0.00 0.00 0.00 83 1013.7
20260904093504 78 161 6.0 8.0 0.00 0.00 0.00 83 1013.7
20260904092507 78 161 5.0 8.0 0.00 0.00 0.00 82 1013.9
20260904092007 78 182 1.0 7.0 0.00 0.00 0.00 82 1013.8
20260904091507 78 155 4.0 10.0 0.00 0.00 0.00 82 1013.8
20260904090507 78 167 5.0 9.0 0.00 0.00 0.00 82 1013.9
20260904090006 78 172 7.0 10.0 0.00 0.00 0.00 82 1013.9
20260904085507 78 172 3.0 7.0 0.00 0.00 0.00 81 1013.8
20260904084506 78 177 6.0 10.0 0.00 0.00 0.00 81 1013.8
20260904084007 78 159 1.0 6.0 0.00 0.00 0.00 81 1013.8
20260904083507 79 192 3.0 6.0 0.00 0.00 0.00 81 1013.7
20260904083006 79 157 3.0 8.0 0.00 0.00 0.00 81 1013.7
20260904082507 79 169 2.0 8.0 0.00 0.00 0.00 80 1013.7
20260904081007 79 166 6.0 12.0 0.00 0.00 0.00 80 1013.7
20260904080506 79 174 5.0 9.0 0.00 0.00 0.00 79 1013.7
20260904080006 79 169 4.0 9.0 0.00 0.00 0.00 79 1013.7
20260904075006 79 169 5.0 10.0 0.00 0.00 0.00 79 1013.7
20260904074506 79 185 4.0 9.0 0.00 0.00 0.00 79 1013.7
20260904073506 79 168 4.0 9.0 0.00 0.00 0.00 78 1013.7
20260904073007 79 173 2.0 8.0 0.00 0.00 0.00 78 1013.7
20260904072506 79 182 1.0 7.0 0.00 0.00 0.00 78 1013.8
20260904071506 79 165 3.0 9.0 0.00 0.00 0.00 77 1013.8
20260904071007 80 196 4.0 9.0 0.00 0.00 0.00 77 1013.7
20260904070506 80 168 5.0 12.0 0.00 0.00 0.00 77 1013.7
20260904065007 80 159 6.0 9.0 0.00 0.00 0.00 75 1013.9
20260904064506 80 171 6.0 13.0 0.00 0.00 0.00 75 1013.9
20260904064006 80 198 4.0 10.0 0.00 0.00 0.00 75 1013.8
20260904063507 80 185 6.0 13.0 0.00 0.00 0.00 75 1013.9
20260904062507 80 172 7.0 13.0 0.00 0.00 0.00 74 1013.9
20260904062006 80 173 6.0 8.0 0.00 0.00 0.00 74 1013.9
20260904061006 80 183 4.0 9.0 0.00 0.00 0.00 74 1014.0
20260904060506 80 186 3.0 8.0 0.00 0.00 0.00 74 1013.9
20260904060007 80 180 5.0 10.0 0.00 0.00 0.00 73 1013.9
20260904055507 80 176 3.0 12.0 0.00 0.00 0.00 73 1013.9
20260904055006 80 176 7.0 18.0 0.00 0.00 0.00 73 1013.9
20260904054506 80 173 10.0 15.0 0.00 0.00 0.00 73 1014.0
20260904054006 80 188 5.0 9.0 0.00 0.00 0.00 73 1014.1
20260904053506 80 157 3.0 8.0 0.00 0.00 0.00 72 1014.0
20260904053006 80 178 4.0 10.0 0.00 0.00 0.00 72 1014.0
20260904052007 81 165 8.0 13.0 0.00 0.00 0.00 72 1013.8
20260904051507 81 181 7.0 13.0 0.00 0.00 0.00 71 1013.8
20260904051006 81 163 8.0 17.0 0.00 0.00 0.00 71 1013.7
20260904044507 81 159 6.0 13.0 0.00 0.00 0.00 70 1013.8
20260904044006 81 175 6.0 13.0 0.00 0.00 0.00 70 1013.8
20260904043006 81 175 5.0 13.0 0.00 0.00 0.00 69 1013.8
20260904042506 81 165 7.0 13.0 0.00 0.00 0.00 69 1013.8
20260904041506 82 171 7.0 12.0 0.00 0.00 0.00 68 1013.9
20260904041007 82 167 9.0 15.0 0.00 0.00 0.00 67 1014.0
20260904040506 82 168 9.0 15.0 0.00 0.00 0.00 67 1013.9
20260904040006 82 163 10.0 16.0 0.00 0.00 0.00 67 1014.0
20260904035506 82 171 7.0 13.0 0.00 0.00 0.00 67 1013.9
20260904035006 82 175 6.0 13.0 0.00 0.00 0.00 66 1014.0
20260904034506 82 171 6.0 13.0 0.00 0.00 0.00 65 1014.0
20260904033506 82 164 9.0 17.0 0.00 0.00 0.00 64 1014.0
20260904033006 82 167 9.0 13.0 0.00 0.00 0.00 64 1014.0
20260904032506 82 174 9.0 13.0 0.00 0.00 0.00 64 1014.1
20260904032006 83 178 5.0 9.0 0.00 0.00 0.00 64 1014.0
20260904031506 83 150 4.0 9.0 0.00 0.00 0.00 64 1013.9
20260904030506 83 172 3.0 12.0 0.00 0.00 0.00 65 1013.8
20260904030006 83 176 6.0 13.0 0.00 0.00 0.00 65 1013.7
20260904025506 83 160 6.0 15.0 0.00 0.00 0.00 65 1013.5
20260904024506 83 181 9.0 15.0 0.00 0.00 0.00 67 1013.4
20260904024006 83 175 8.0 13.0 0.00 0.00 0.00 67 1013.5
20260904023506 83 163 12.0 21.0 0.00 0.00 0.00 67 1013.3
20260904023006 83 178 6.0 12.0 0.00 0.00 0.00 69 1013.2
20260904022506 84 169 5.0 13.0 0.00 0.00 0.00 69 1013.2
20260904021006 84 162 8.0 13.0 0.00 0.00 0.00 68 1012.9
20260904020506 84 132 6.0 13.0 0.00 0.00 0.00 67 1012.8
20260904020006 84 150 7.0 13.0 0.00 0.00 0.00 66 1012.8
20260904015505 84 168 9.0 15.0 0.00 0.00 0.00 66 1012.7
20260904015006 84 150 6.0 13.0 0.00 0.00 0.00 66 1012.6
20260904014506 85 160 5.0 9.0 0.00 0.00 0.00 66 1012.6
20260904014005 85 166 5.0 13.0 0.00 0.00 0.00 66 1012.4
20260904013505 85 160 7.0 12.0 0.00 0.00 0.00 65 1012.4
20260904013006 85 146 6.0 10.0 0.00 0.00 0.00 65 1012.4
20260904012506 85 155 4.0 13.0 0.00 0.00 0.00 65 1012.4
20260904012006 85 165 6.0 18.0 0.00 0.00 0.00 64 1012.2
20260904011506 85 138 9.0 16.0 0.00 0.00 0.00 64 1012.2
20260904011006 85 158 7.0 14.0 0.00 0.00 0.00 64 1012.1
20260904010506 85 140 9.0 14.0 0.00 0.00 0.00 63 1012.1
20260904010005 86 166 10.0 16.0 0.00 0.00 0.00 63 1012.1
20260904005506 86 134 7.0 14.0 0.00 0.00 0.00 63 1012.2
20260904004505 86 160 7.0 15.0 0.00 0.00 0.00 63 1012.3
20260904004006 86 153 8.0 17.0 0.00 0.00 0.00 63 1012.2
20260904003505 86 165 10.0 15.0 0.00 0.00 0.00 63 1012.1
20260904003006 87 155 7.0 14.0 0.00 0.00 0.00 63 1012.2
20260904002506 87 173 6.0 13.0 0.00 0.00 0.00 63 1012.1
20260904002005 87 153 7.0 15.0 0.00 0.00 0.00 64 1012.1
20260904001506 87 162 6.0 13.0 0.00 0.00 0.00 63 1012.1
20260904001005 87 162 4.0 13.0 0.00 0.00 0.00 63 1012.2
20260904000505 87 167 7.0 13.0 0.00 0.00 0.00 63 1012.1
20260904000006 87 155 7.0 16.0 0.00 0.00 0.00 63 1012.0
20260903235506 88 125 9.0 16.0 0.00 0.00 0.00 63 1012.0
20260903235006 88 129 7.0 14.0 0.00 0.00 0.00 62 1011.9
20260903234505 88 131 7.0 14.0 0.00 0.00 0.00 62 1011.8
20260903234005 88 139 6.0 17.0 0.00 0.00 0.00 61 1011.8
20260903233505 89 163 9.0 17.0 0.00 0.00 0.00 60 1011.7
20260903233006 89 171 11.0 16.0 0.00 0.00 0.00 58 1011.7
20260903232505 89 157 6.0 14.0 0.00 0.00 0.00 59 1011.7
20260903231505 90 159 11.0 15.0 0.00 0.00 0.00 58 1011.7
20260903231005 90 148 5.0 14.0 0.00 0.00 0.00 57 1011.7
20260903230505 90 151 8.0 13.0 0.00 0.00 0.00 57 1011.8
20260903230006 90 161 11.0 18.0 0.00 0.00 0.00 56 1011.8
20260903225505 90 143 6.0 12.0 0.00 0.00 0.00 57 1011.7
20260903224006 91 150 9.0 16.0 0.00 0.00 0.00 56 1011.7
20260903223505 91 175 8.0 14.0 0.00 0.00 0.00 57 1011.7
20260903223005 91 159 6.0 10.0 0.00 0.00 0.00 57 1011.6
20260903222005 90 153 8.0 17.0 0.00 0.00 0.00 57 1011.5
20260903221505 90 168 9.0 16.0 0.00 0.00 0.00 58 1011.6
20260903220505 91 133 7.0 14.0 0.00 0.00 0.00 57 1011.7
20260903220006 91 179 9.0 17.0 0.00 0.00 0.00 58 1011.7
20260903215505 91 160 10.0 15.0 0.00 0.00 0.00 57 1011.7
20260903214506 92 171 8.0 15.0 0.00 0.00 0.00 57 1011.8
20260903213505 92 159 7.0 13.0 0.00 0.00 0.00 56 1011.9
20260903213005 92 147 7.0 12.0 0.00 0.00 0.00 57 1011.9
20260903212505 92 153 8.0 16.0 0.00 0.00 0.00 56 1011.9
20260903212005 92 157 6.0 16.0 0.00 0.00 0.00 57 1012.0
20260903211505 92 157 7.0 13.0 0.00 0.00 0.00 57 1012.0
20260903211005 92 157 8.0 14.0 0.00 0.00 0.00 58 1012.1
20260903210506 92 158 9.0 18.0 0.00 0.00 0.00 57 1012.1
20260903210005 92 166 9.0 15.0 0.00 0.00 0.00 57 1012.1
20260903205505 91 189 7.0 15.0 0.00 0.00 0.00 58 1012.2
20260903204505 91 201 6.0 15.0 0.00 0.00 0.00 59 1012.4
20260903204005 91 196 5.0 13.0 0.00 0.00 0.00 59 1012.5
20260903203005 91 153 7.0 15.0 0.00 0.00 0.00 60 1013.2
20260903202505 90 182 12.0 22.0 0.00 0.00 0.00 60 1012.8
20260903202005 90 172 10.0 17.0 0.00 0.00 0.00 61 1012.8
20260903201505 89 187 6.0 13.0 0.00 0.00 0.00 63 1012.9
20260903201005 89 173 12.0 17.0 0.00 0.00 0.00 62 1012.9
20260903200505 89 181 10.0 17.0 0.00 0.00 0.00 62 1012.9
20260903200005 90 195 7.0 13.0 0.00 0.00 0.00 60 1012.9
20260903195005 90 159 10.0 18.0 0.00 0.00 0.00 62 1012.9
20260903194505 90 162 9.0 14.0 0.00 0.00 0.00 61 1013.0
20260903194005 90 195 5.0 10.0 0.00 0.00 0.00 62 1013.0
20260903193505 90 179 7.0 13.0 0.00 0.00 0.00 60 1013.1
20260903193005 90 183 8.0 16.0 0.00 0.00 0.00 61 1013.2
20260903192505 90 173 11.0 18.0 0.00 0.00 0.00 62 1013.3
20260903192005 90 192 8.0 18.0 0.00 0.00 0.00 62 1013.4
20260903191505 89 181 9.0 16.0 0.00 0.00 0.00 63 1013.4
20260903191005 89 158 12.0 18.0 0.00 0.00 0.00 64 1013.4
20260903190505 88 166 12.0 18.0 0.00 0.00 0.00 64 1013.5
20260903185505 88 175 11.0 21.0 0.00 0.00 0.00 64 1013.7
20260903185004 88 182 10.0 16.0 0.00 0.00 0.00 65 1013.8
20260903183504 87 175 10.0 16.0 0.00 0.00 0.00 68 1013.9
20260903183005 86 180 9.0 18.0 0.00 0.00 0.00 70 1014.0
20260903182505 85 176 14.0 21.0 0.00 0.00 0.00 70 1014.2
20260903181005 84 199 8.0 15.0 0.00 0.00 0.00 73 1014.4